Location: Unspecified
(0.0000°N, 0.0000°E)
Time: 02:24:44
(UTC+00:00)

Tiros 1 despin weight - Pass Details

Date: 20 December 2018
Orbit: 594 x 642 km, 48.2° (Epoch: 16 January)

Event Time Altitude Azimuth Distance (km) Brightness Sun altitude
Rises 20:04:34 0° 255° (WSW) 2,823 ? -28.8°
Reaches altitude 10° 20:08:06 10° 284° (WNW) 1,916 ? -29.6°
Enters shadow 20:09:59 13° 310° (NW) 1,749 ? -30.0°
